Voltar ao catálogo

DELTA 4 R/B

LostMEO
NORAD 40535·ROCKET BODY·🇺🇸 United States

Lançado Mar 25, 2015 de Cape Canaveral Space Force Station

Loading…

Próximas Passagens (próximas 24 horas)

TLE

ObsoletoSource: Space-Track

Época: Aug 5, 2026, 04:39 UTC

1 40535U 15013B   26217.19384281  .00000098  00000-0  00000-0 0  9998
2 40535  52.6345 214.2542 0033004  67.6102 292.7505  1.92974634 80100

Acompanhe DELTA 4 R/B em tempo real com AllMySat

Download on the App Store